Regional Weather Roundup
Issued by NWS

Home | Current Version | Previous Version | Text Only | Print | Product List | Glossary Off
Versions: 1 2 3 4 5 6 7 8 9 10 11 12 13 14 15 16 17 18 19 20 21 22 23 24 25 26 27 28 29 30 31 32 33 34 35 36 37 38 39 40 41 42 43 44 45 46 47 48 49 50

000
ASUS43 KMPX 052001
RWRMN
WEATHER ROUNDUP FOR MINNESOTA
NATIONAL WEATHER SERVICE TWIN CITIES/CHANHASSEN MN
300 PM CDT SUN JUL 05 2015


NOTE: "FAIR" INDICATES FEW OR NO CLOUDS BELOW 12,000 FEET WITH NO
SIGNIFICANT WEATHER AND/OR OBSTRUCTIONS TO VISIBILITY. N/A MEANS
CURRENT SKY AND/OR WEATHER CONDITIONS ARE NOT AVAILABLE.

MNZ060>063-068>070-052100-
   Twin Cities Metro

CITY           SKY/WX    TMP DP  RH WIND       PRES   REMARKS
TWIN CITIES    PTSUNNY   86  68  54 S17G24    29.86F
ST PAUL        MOSUNNY   85  70  60 S17G25    29.87F
CRYSTAL        MOSUNNY   88  68  51 S14G24    29.84F HX  91
BLAINE         PTSUNNY   86  70  58 S13G18    29.86F HX  90
LAKEVILLE      PTSUNNY   82  70  65 S12       29.88F
EDEN PRAIRIE   MOSUNNY   86  70  58 S15       29.85F HX  90
SOUTH ST PAUL  MOSUNNY   85  67  55 S15G22    29.88F
LAKE ELMO      FAIR      82  70  65 S16       29.90F
$$
MNZ001>005-007-008-013>017-022>024-027-028-052100-
   Northwest Minnesota

CITY           SKY/WX    TMP DP  RH WIND       PRES   REMARKS
BEMIDJI        CLOUDY    78  67  69 W8        29.79F
HALLOCK        CLOUDY    70  66  88 NW6       29.76R
ROSEAU         CLOUDY    66  63  88 SE6       29.73F
WARROAD        LGT RAIN  66  63  88 CALM      29.74F
THIEF RVR FALL CLOUDY    66  64  94 S8        29.77R
CROOKSTON      LGT RAIN  66  66 100 S9        29.76R
FOSSTON        CLOUDY    70  64  83 NW13      29.82R
DETROIT LAKES  CLOUDY    84  64  51 S13       29.79F
MOORHEAD       CLOUDY    81  70  69 E6        29.72F
PARK RAPIDS    CLOUDY    87  64  46 SW14      29.79F
MAHNOMEN       MOCLDY    77  67  72 CALM      29.78R
$$
MNZ006-009>011-018-025>026-052100-
   North Central Minnesota

CITY           SKY/WX    TMP DP  RH WIND       PRES   REMARKS
BAUDETTE       LGT RAIN  70  65  84 W12G20    29.73F
FLAG ISLAND    RAIN      66  64  94 SW10      29.75F
INTL FALLS     CLOUDY    77  68  73 SW13G22   29.75F
WASKISH        CLOUDY    75  70  83 SW6       29.76F
BIG FORK       CLOUDY    82  68  61 SW12      29.79S
LONGVILLE      CLOUDY    82  68  61 S10G17    29.80F
GRAND RAPIDS   CLOUDY    82  66  57 S16G22    29.81F
CRANE LAKE     CLOUDY    77  70  78 SW2       29.79F
ORR            CLOUDY    81  64  57 S13G20    29.76F
COOK           CLOUDY    81  68  65 S7        29.79F
WALKER         FAIR      83  66  56 W7        29.79F
$$
MNZ012-019>021-037-052100-
   Northeast Minnesota

CITY           SKY/WX    TMP DP  RH WIND       PRES   REMARKS
DULUTH         MOSUNNY   82  66  58 S18G25    29.85F
ELY            PTSUNNY   81  64  57 S12G18    29.83F
HIBBING        PTSUNNY   82  67  60 S10G17    29.81F
DULUTH HARBOR  MOSUNNY   84  68  58 S18G25    29.83F
SILVER BAY     PTSUNNY   79  64  61 S6        29.85S
GRAND MARAIS     N/A     57  50  77 E5        29.88F
G MARAIS ARPRT SUNNY     73  61  64 S10       29.92F
$$
MNZ029>031-032-039>041-046>048-054>057-064-052100-
   West Central Minnesota

CITY           SKY/WX    TMP DP  RH WIND       PRES   REMARKS
FERGUS FALLS   CLOUDY    82  70  65 S7        29.76F
WHEATON        PTSUNNY   82  68  61 W7        29.77S
MORRIS         PTSUNNY   88  68  51 S13G18    29.77F HX  91
ALEXANDRIA     CLOUDY    84  66  54 S16       29.82F
ELBOW LAKE     FAIR      84  69  60 S12       29.79R
WADENA         CLOUDY    84  66  54 S10G16    29.80S
GLENWOOD       PTSUNNY   86  66  51 S14G21    29.82F
APPLETON       MOSUNNY   93  63  36 SW13G18   29.77F HX  94
BENSON         PTSUNNY   88  70  55 S13       29.79F HX  92
ORTONVILLE     MOSUNNY   88  66  48 SW3       29.77S HX  90
MADISON        MOSUNNY   90  66  45 SW10      29.78F HX  92
WILLMAR          N/A     86  70  58 S9        29.83S HX  90
$$
MNZ033>034-036-042>043-049>051-058-059-052100-
   Central Minnesota

CITY           SKY/WX    TMP DP  RH WIND       PRES   REMARKS
ST CLOUD       MOSUNNY   84  68  58 SE16G22   29.83F
SAUK CENTRE    FAIR      85  69  57 S12       29.82F
PAYNESVILLE    MOSUNNY   82  67  59 E9        29.83F
AITKIN         PTSUNNY   82  70  65 S12       29.81F
PINE RIVER       N/A     84  68  58 S9        29.83F
BRAINERD       PTSUNNY   85  64  49 S13       29.81F
STAPLES        PTSUNNY   84  64  51 S10       29.80F
LONG PRAIRIE   FAIR      84  68  58 SE10G16   29.82F
LITTLE FALLS   PTSUNNY   86  64  48 SE13      29.82F
LITCHFIELD     SUNNY     84  72  65 SE7G18    29.83F
BUFFALO        MOSUNNY   84  68  59 SE8       29.85F
MAPLE LAKE     MOSUNNY   84  72  67 SE7G16    29.85F
$$
MNZ037-044-045-052-053-052100-
   East Central Minnesota

CITY           SKY/WX    TMP DP  RH WIND       PRES   REMARKS
PRINCETON      PTSUNNY   84  70  61 S13G20    29.85S
MORA           PTSUNNY   82  68  61 S15       29.86F
CAMBRIDGE      PTSUNNY   88  70  55 S9        29.84F HX  92
RUSH CITY      PTSUNNY   83  68  60 S10       29.86F
MOOSE LAKE     PTSUNNY   81  66  61 S10G17    29.83F
HINCKLEY       FAIR      82  68  61 S10G16    29.85F
CLOQUET        PTSUNNY   82  64  54 S14       29.85F
MCGREGOR       PTSUNNY   82  66  57 S13G18    29.84S
$$
MNZ071>073-080-081-089-090-097-098-052100-
   Southwest Minnesota

CITY           SKY/WX    TMP DP  RH WIND       PRES   REMARKS
MONTEVIDEO     MOSUNNY   90  68  48 SW12G18   29.80S HX  93
GRANITE FALLS  PTSUNNY   86  70  58 S10G17    29.82F HX  91
CANBY          MOSUNNY   88  66  47 SW10G17   29.80F HX  90
MARSHALL       MOSUNNY   88  66  48 S12         N/A  HX  90
REDWOOD FALLS  MOSUNNY   88  67  49 S13       29.82F HX  91
OLIVIA         MOSUNNY   86  64  48 S15       29.82F
PIPESTONE      SUNNY     84  66  54 S10       29.84S
WINDOM         PTSUNNY   86  66  51 S13G18    29.86S
WORTHINGTON    MOSUNNY   88  66  48 S20G26    29.86R HX  90
JACKSON        PTSUNNY   88  70  55 S15G22    29.88S HX  92
TRACY          PTSUNNY   88  67  48 S10       29.84S HX  90
SLAYTON        PTSUNNY   87  63  44 S12       29.86S
$$
MNZ065>067-074>077-082>085-091>093-052100-
   South Central Minnesota

CITY           SKY/WX    TMP DP  RH WIND       PRES   REMARKS
MANKATO        MOSUNNY   84  70  61 S10G20    29.87F
NEW ULM        MOSUNNY   84  70  61 S15       29.84F
FAIRMONT       PTSUNNY   82  68  61 S16       29.87S
GLENCOE        SUNNY     87  73  63 S9        29.85F HX  94
FARIBAULT      PTSUNNY   84  70  61 S10       29.90F
OWATONNA       PTSUNNY   82  68  61 SE13G20   29.91F
WASECA         PTSUNNY   82  70  65 S12       29.91F
ALBERT LEA     PTSUNNY   84  68  58 S12       29.91S
$$
MNZ078>079-086>088-094>096-052100-
   Southeast Minnesota

CITY           SKY/WX    TMP DP  RH WIND       PRES   REMARKS
ROCHESTER      PTSUNNY   82  67  60 S15G22    29.96R
RED WING       PTSUNNY   84  66  54 S10       29.91S
STANTON        PTSUNNY   82  68  61 S15       29.90S
DODGE CENTER   PTSUNNY   81  70  69 S13       29.95R
WINONA         PTSUNNY   81  63  54 S5        29.96R
AUSTIN         PTSUNNY   84  66  54 S12G21    29.94S
PRESTON        PTSUNNY   79  66  63 S12G20    29.98R
$$
ABBREVIATIONS USED IN REMARKS
   TC - TEMPERATURES IN CELSIUS
  WCI - WIND CHILL INDEX
   HX - HEAT INDEX
  VSB - VISIBILITY
$$


USA.gov is the U.S. government's official web portal to all federal, state and local government web resources and services.